Time,TemperatureF,DewpointF,PressureIn,WindDirection,WindDirectionDegrees,WindSpeedMPH,WindSpeedGustMPH,Humidity,HourlyPrecipIn,Conditions,Clouds,dailyrainin,SoftwareType,DateUTC
2013-05-05 00:01:00,56.9,43.2,30.21,ESE,113,0.0,0.0,60,0.00,,,0.00,WUHU216HW,2013-05-05 04:01:00,
2013-05-05 00:06:00,56.7,43.0,30.21,ESE,113,0.0,0.0,60,0.00,,,0.00,WUHU216HW,2013-05-05 04:06:00,
2013-05-05 00:11:00,56.5,42.8,30.21,ESE,113,0.0,0.0,60,0.00,,,0.00,WUHU216HW,2013-05-05 04:11:00,
2013-05-05 00:16:00,56.5,42.8,30.21,ENE,68,0.0,0.0,60,0.00,,,0.00,WUHU216HW,2013-05-05 04:16:00,
2013-05-05 00:21:00,56.3,42.7,30.21,ESE,113,0.0,0.0,60,0.00,,,0.00,WUHU216HW,2013-05-05 04:21:00,
2013-05-05 00:26:00,56.2,42.9,30.21,East,90,0.0,0.0,61,0.00,,,0.00,WUHU216HW,2013-05-05 04:26:00,
2013-05-05 00:31:00,56.2,43.3,30.22,ESE,113,0.0,0.0,62,0.00,,,0.00,WUHU216HW,2013-05-05 04:31:00,
2013-05-05 00:36:00,56.0,43.6,30.21,ESE,113,0.0,0.0,63,0.00,,,0.00,WUHU216HW,2013-05-05 04:36:00,
2013-05-05 00:41:00,56.0,43.6,30.22,East,90,0.0,0.0,63,0.00,,,0.00,WUHU216HW,2013-05-05 04:41:00,
2013-05-05 00:46:00,55.8,43.4,30.22,ESE,113,0.0,0.0,63,0.00,,,0.00,WUHU216HW,2013-05-05 04:46:00,
2013-05-05 00:51:00,55.8,43.4,30.22,East,90,0.0,0.0,63,0.00,,,0.00,WUHU216HW,2013-05-05 04:51:00,
2013-05-05 00:56:00,55.8,43.4,30.22,ESE,113,0.0,0.0,63,0.00,,,0.00,WUHU216HW,2013-05-05 04:56:00,
2013-05-05 01:01:00,55.6,43.2,30.22,ESE,113,0.0,0.0,63,0.00,,,0.00,WUHU216HW,2013-05-05 05:01:00,
2013-05-05 01:06:00,55.4,43.0,30.22,ESE,113,0.0,0.0,63,0.00,,,0.00,WUHU216HW,2013-05-05 05:06:00,
2013-05-05 01:11:00,55.4,43.0,30.22,ESE,113,0.0,0.0,63,0.00,,,0.00,WUHU216HW,2013-05-05 05:11:00,
2013-05-05 01:16:00,55.4,43.4,30.22,East,90,0.0,0.0,64,0.00,,,0.00,WUHU216HW,2013-05-05 05:16:00,
2013-05-05 01:21:00,55.3,43.3,30.22,East,90,0.0,0.0,64,0.00,,,0.00,WUHU216HW,2013-05-05 05:21:00,
2013-05-05 01:26:00,55.1,43.1,30.22,East,90,0.0,0.0,64,0.00,,,0.00,WUHU216HW,2013-05-05 05:26:00,
2013-05-05 01:31:00,55.1,43.1,30.22,ESE,113,0.0,0.0,64,0.00,,,0.00,WUHU216HW,2013-05-05 05:31:00,
2013-05-05 01:36:00,55.1,43.1,30.21,ESE,113,0.0,0.0,64,0.00,,,0.00,WUHU216HW,2013-05-05 05:36:00,
2013-05-05 01:41:00,54.9,42.9,30.21,ESE,113,0.0,0.0,64,0.00,,,0.00,WUHU216HW,2013-05-05 05:41:00,
2013-05-05 01:46:00,54.9,43.3,30.21,East,90,0.0,0.0,65,0.00,,,0.00,WUHU216HW,2013-05-05 05:46:00,
2013-05-05 01:51:00,54.7,43.1,30.21,ESE,113,0.0,0.0,65,0.00,,,0.00,WUHU216HW,2013-05-05 05:51:00,
2013-05-05 01:56:00,54.7,42.8,30.21,ESE,113,0.0,0.0,64,0.00,,,0.00,WUHU216HW,2013-05-05 05:56:00,
2013-05-05 02:01:00,54.7,43.1,30.21,East,90,0.0,0.0,65,0.00,,,0.00,WUHU216HW,2013-05-05 06:01:00,
2013-05-05 02:06:00,54.5,43.0,30.21,ESE,113,0.0,0.0,65,0.00,,,0.00,WUHU216HW,2013-05-05 06:06:00,
2013-05-05 02:11:00,54.5,43.0,30.21,ESE,113,0.0,0.0,65,0.00,,,0.00,WUHU216HW,2013-05-05 06:11:00,
2013-05-05 02:16:00,54.4,42.4,30.21,ESE,113,0.0,0.0,64,0.00,,,0.00,WUHU216HW,2013-05-05 06:16:00,
2013-05-05 02:21:00,54.2,42.2,30.21,ESE,113,0.0,0.0,64,0.00,,,0.00,WUHU216HW,2013-05-05 06:21:00,
2013-05-05 02:26:00,54.0,42.0,30.21,ESE,113,0.0,0.0,64,0.00,,,0.00,WUHU216HW,2013-05-05 06:26:00,
2013-05-05 02:31:00,53.8,42.3,30.21,ESE,113,0.0,0.0,65,0.00,,,0.00,WUHU216HW,2013-05-05 06:31:00,
2013-05-05 02:36:00,53.6,42.1,30.21,ESE,113,0.0,0.0,65,0.00,,,0.00,WUHU216HW,2013-05-05 06:36:00,
2013-05-05 02:41:00,53.5,42.4,30.21,ESE,113,0.0,0.0,66,0.00,,,0.00,WUHU216HW,2013-05-05 06:41:00,
2013-05-05 02:46:00,53.3,42.2,30.21,ESE,113,0.0,0.0,66,0.00,,,0.00,WUHU216HW,2013-05-05 06:46:00,
2013-05-05 02:51:00,53.3,42.2,30.20,ESE,113,0.0,0.0,66,0.00,,,0.00,WUHU216HW,2013-05-05 06:51:00,
2013-05-05 02:56:00,53.1,42.0,30.21,ESE,113,0.0,0.0,66,0.00,,,0.00,WUHU216HW,2013-05-05 06:56:00,
2013-05-05 03:01:00,52.9,42.2,30.21,ESE,113,0.0,0.0,67,0.00,,,0.00,WUHU216HW,2013-05-05 07:01:00,
2013-05-05 03:06:00,52.9,42.2,30.21,ESE,113,0.0,0.0,67,0.00,,,0.00,WUHU216HW,2013-05-05 07:06:00,
2013-05-05 03:11:00,52.9,42.7,30.21,ESE,113,0.0,0.0,68,0.00,,,0.00,WUHU216HW,2013-05-05 07:11:00,
2013-05-05 03:16:00,52.9,43.0,30.21,ESE,113,0.0,0.0,69,0.00,,,0.00,WUHU216HW,2013-05-05 07:16:00,
2013-05-05 03:21:00,52.9,43.0,30.21,ESE,113,0.0,0.0,69,0.00,,,0.00,WUHU216HW,2013-05-05 07:21:00,
2013-05-05 03:26:00,52.7,42.9,30.21,ESE,113,0.0,0.0,69,0.00,,,0.00,WUHU216HW,2013-05-05 07:26:00,
2013-05-05 03:31:00,52.6,42.3,30.21,ESE,113,0.0,0.0,68,0.00,,,0.00,WUHU216HW,2013-05-05 07:31:00,
2013-05-05 03:36:00,52.4,42.1,30.21,ESE,113,0.0,0.0,68,0.00,,,0.00,WUHU216HW,2013-05-05 07:36:00,
2013-05-05 03:41:00,52.2,42.4,30.21,ESE,113,0.0,0.0,69,0.00,,,0.00,WUHU216HW,2013-05-05 07:41:00,
2013-05-05 03:46:00,51.8,41.7,30.21,ESE,113,0.0,0.0,68,0.00,,,0.00,WUHU216HW,2013-05-05 07:46:00,
2013-05-05 03:51:00,51.5,41.7,30.21,ESE,113,0.0,0.0,69,0.00,,,0.00,WUHU216HW,2013-05-05 07:51:00,
2013-05-05 03:56:00,51.3,41.9,30.21,ESE,113,0.0,0.0,70,0.00,,,0.00,WUHU216HW,2013-05-05 07:56:00,
2013-05-05 04:01:00,51.1,41.3,30.21,ESE,113,0.0,0.0,69,0.00,,,0.00,WUHU216HW,2013-05-05 08:01:00,
2013-05-05 04:05:00,50.9,42.3,30.21,ESE,113,0.0,0.0,72,0.00,,,0.00,WUHU216HW,2013-05-05 08:05:00,
2013-05-05 04:10:00,50.9,42.3,30.21,ESE,113,0.0,0.0,72,0.00,,,0.00,WUHU216HW,2013-05-05 08:10:00,
2013-05-05 04:15:00,51.1,42.1,30.22,ESE,113,0.0,0.0,71,0.00,,,0.00,WUHU216HW,2013-05-05 08:15:00,
2013-05-05 04:20:00,50.9,42.0,30.22,ESE,113,0.0,0.0,71,0.00,,,0.00,WUHU216HW,2013-05-05 08:20:00,
2013-05-05 04:25:00,50.8,41.8,30.22,ESE,113,0.0,0.0,71,0.00,,,0.00,WUHU216HW,2013-05-05 08:25:00,
2013-05-05 04:30:00,50.8,42.1,30.22,ESE,113,0.0,0.0,72,0.00,,,0.00,WUHU216HW,2013-05-05 08:30:00,
2013-05-05 04:35:00,50.6,42.0,30.22,ESE,113,0.0,0.0,72,0.00,,,0.00,WUHU216HW,2013-05-05 08:35:00,
2013-05-05 04:40:00,50.6,42.0,30.22,ESE,113,0.0,0.0,72,0.00,,,0.00,WUHU216HW,2013-05-05 08:40:00,
2013-05-05 04:45:00,50.8,42.1,30.22,ESE,113,0.0,0.0,72,0.00,,,0.00,WUHU216HW,2013-05-05 08:45:00,
2013-05-05 04:50:00,50.6,41.6,30.22,ESE,113,0.0,0.0,71,0.00,,,0.00,WUHU216HW,2013-05-05 08:50:00,
2013-05-05 04:55:00,50.4,41.4,30.22,ESE,113,0.0,0.0,71,0.00,,,0.00,WUHU216HW,2013-05-05 08:55:00,
2013-05-05 05:00:00,50.4,41.4,30.22,ESE,113,0.0,0.0,71,0.00,,,0.00,WUHU216HW,2013-05-05 09:00:00,
2013-05-05 05:05:00,50.2,41.6,30.22,ESE,113,0.0,0.0,72,0.00,,,0.00,WUHU216HW,2013-05-05 09:05:00,
2013-05-05 05:10:00,50.2,41.6,30.23,ESE,113,0.0,0.0,72,0.00,,,0.00,WUHU216HW,2013-05-05 09:10:00,
2013-05-05 05:15:00,50.0,42.0,30.22,ESE,113,0.0,0.0,74,0.00,,,0.00,WUHU216HW,2013-05-05 09:15:00,
2013-05-05 05:20:00,50.0,41.7,30.23,ESE,113,0.0,0.0,73,0.00,,,0.00,WUHU216HW,2013-05-05 09:20:00,
2013-05-05 05:25:00,50.0,41.4,30.22,ESE,113,0.0,0.0,72,0.00,,,0.00,WUHU216HW,2013-05-05 09:25:00,
2013-05-05 05:30:00,49.9,41.2,30.23,ESE,113,0.0,0.0,72,0.00,,,0.00,WUHU216HW,2013-05-05 09:30:00,
2013-05-05 05:35:00,49.7,41.1,30.23,ESE,113,0.0,0.0,72,0.00,,,0.00,WUHU216HW,2013-05-05 09:35:00,
2013-05-05 05:40:00,49.7,41.1,30.23,ESE,113,0.0,0.0,72,0.00,,,0.00,WUHU216HW,2013-05-05 09:40:00,
2013-05-05 05:45:00,49.3,41.0,30.23,ESE,113,0.0,0.0,73,0.00,,,0.00,WUHU216HW,2013-05-05 09:45:00,
2013-05-05 05:50:00,49.3,41.0,30.23,ESE,113,0.0,0.0,73,0.00,,,0.00,WUHU216HW,2013-05-05 09:50:00,
2013-05-05 05:55:00,49.1,40.8,30.23,ESE,113,0.0,0.0,73,0.00,,,0.00,WUHU216HW,2013-05-05 09:55:00,
2013-05-05 06:00:00,49.1,40.8,30.23,ESE,113,0.0,0.0,73,0.00,,,0.00,WUHU216HW,2013-05-05 10:00:00,
2013-05-05 06:05:00,49.0,40.6,30.23,ESE,113,0.0,0.0,73,0.00,,,0.00,WUHU216HW,2013-05-05 10:05:00,
2013-05-05 06:10:00,49.0,40.6,30.23,ESE,113,0.0,0.0,73,0.00,,,0.00,WUHU216HW,2013-05-05 10:10:00,
2013-05-05 06:15:00,49.0,40.6,30.24,ESE,113,0.0,0.0,73,0.00,,,0.00,WUHU216HW,2013-05-05 10:15:00,
2013-05-05 06:20:00,49.0,41.0,30.24,ESE,113,0.0,0.0,74,0.00,,,0.00,WUHU216HW,2013-05-05 10:20:00,
2013-05-05 06:25:00,49.0,41.0,30.24,ESE,113,0.0,0.0,74,0.00,,,0.00,WUHU216HW,2013-05-05 10:25:00,
2013-05-05 06:30:00,49.0,41.0,30.24,ESE,113,0.0,0.0,74,0.00,,,0.00,WUHU216HW,2013-05-05 10:30:00,
2013-05-05 06:35:00,49.0,41.3,30.24,ESE,113,0.0,0.0,75,0.00,,,0.00,WUHU216HW,2013-05-05 10:35:00,
2013-05-05 06:40:00,49.1,41.5,30.24,ESE,113,0.0,0.0,75,0.00,,,0.00,WUHU216HW,2013-05-05 10:40:00,
2013-05-05 06:45:00,49.1,41.5,30.24,ESE,113,0.0,0.0,75,0.00,,,0.00,WUHU216HW,2013-05-05 10:45:00,
2013-05-05 06:50:00,49.3,41.7,30.25,ESE,113,0.0,0.0,75,0.00,,,0.00,WUHU216HW,2013-05-05 10:50:00,
2013-05-05 06:55:00,49.7,42.0,30.25,ESE,113,0.0,0.0,75,0.00,,,0.00,WUHU216HW,2013-05-05 10:55:00,
2013-05-05 07:00:00,50.0,42.4,30.25,ESE,113,0.0,0.0,75,0.00,,,0.00,WUHU216HW,2013-05-05 11:00:00,
2013-05-05 07:05:00,51.1,43.5,30.25,ESE,113,0.0,0.0,75,0.00,,,0.00,WUHU216HW,2013-05-05 11:05:00,
2013-05-05 07:10:00,52.6,45.2,30.25,ESE,113,0.0,0.0,76,0.00,,,0.00,WUHU216HW,2013-05-05 11:10:00,
2013-05-05 07:15:00,56.3,48.8,30.25,ESE,113,0.0,0.0,76,0.00,,,0.00,WUHU216HW,2013-05-05 11:15:00,
2013-05-05 07:20:00,60.8,51.1,30.25,ESE,113,0.0,0.0,70,0.00,,,0.00,WUHU216HW,2013-05-05 11:20:00,
2013-05-05 07:25:00,63.2,50.8,30.25,ESE,113,0.0,0.0,64,0.00,,,0.00,WUHU216HW,2013-05-05 11:25:00,
2013-05-05 07:30:00,64.3,50.0,30.25,ESE,113,0.0,0.0,60,0.00,,,0.00,WUHU216HW,2013-05-05 11:30:00,
2013-05-05 07:35:00,64.1,48.4,30.25,ESE,113,0.0,0.0,57,0.00,,,0.00,WUHU216HW,2013-05-05 11:35:00,
2013-05-05 07:40:00,63.0,47.4,30.25,ESE,113,0.0,0.0,57,0.00,,,0.00,WUHU216HW,2013-05-05 11:40:00,
2013-05-05 07:45:00,61.9,46.5,30.25,ESE,113,0.0,0.0,57,0.00,,,0.00,WUHU216HW,2013-05-05 11:45:00,
2013-05-05 07:50:00,61.2,45.8,30.25,ESE,113,0.0,0.0,57,0.00,,,0.00,WUHU216HW,2013-05-05 11:50:00,
2013-05-05 07:55:00,60.8,46.0,30.25,ESE,113,0.0,0.0,58,0.00,,,0.00,WUHU216HW,2013-05-05 11:55:00,
2013-05-05 08:00:00,60.7,46.4,30.25,ESE,113,0.0,0.0,59,0.00,,,0.00,WUHU216HW,2013-05-05 12:00:00,
2013-05-05 08:05:00,60.7,46.4,30.25,SSE,158,0.0,0.0,59,0.00,,,0.00,WUHU216HW,2013-05-05 12:05:00,
2013-05-05 08:10:00,61.2,47.7,30.25,SW,225,0.0,0.0,61,0.00,,,0.00,WUHU216HW,2013-05-05 12:10:00,
2013-05-05 08:15:00,61.6,48.1,30.26,SW,225,0.0,0.0,61,0.00,,,0.00,WUHU216HW,2013-05-05 12:15:00,
2013-05-05 08:20:00,62.3,48.2,30.26,WSW,248,0.0,0.0,60,0.00,,,0.00,WUHU216HW,2013-05-05 12:20:00,
2013-05-05 08:25:00,62.8,48.2,30.26,WSW,248,0.0,0.0,59,0.00,,,0.00,WUHU216HW,2013-05-05 12:25:00,
2013-05-05 08:30:00,63.4,48.8,30.26,SW,225,0.0,0.0,59,0.00,,,0.00,WUHU216HW,2013-05-05 12:30:00,
2013-05-05 08:35:00,64.1,49.0,30.25,SW,225,0.0,0.0,58,0.00,,,0.00,WUHU216HW,2013-05-05 12:35:00,
2013-05-05 08:40:00,64.6,47.5,30.25,SW,225,0.0,0.0,54,0.00,,,0.00,WUHU216HW,2013-05-05 12:40:00,
2013-05-05 08:45:00,65.0,47.9,30.25,SW,225,0.0,0.0,54,0.00,,,0.00,WUHU216HW,2013-05-05 12:45:00,
2013-05-05 08:50:00,65.3,48.7,30.25,SSE,158,0.0,0.0,55,0.00,,,0.00,WUHU216HW,2013-05-05 12:50:00,
2013-05-05 08:55:00,65.5,47.9,30.25,WSW,248,0.0,0.0,53,0.00,,,0.00,WUHU216HW,2013-05-05 12:55:00,
2013-05-05 09:00:00,65.9,47.8,30.25,WSW,248,0.0,0.0,52,0.00,,,0.00,WUHU216HW,2013-05-05 13:00:00,
2013-05-05 09:05:00,66.4,47.8,30.25,West,270,0.0,0.0,51,0.00,,,0.00,WUHU216HW,2013-05-05 13:05:00,
2013-05-05 09:10:00,66.8,48.2,30.25,SW,225,0.0,0.0,51,0.00,,,0.00,WUHU216HW,2013-05-05 13:10:00,
2013-05-05 09:15:00,67.3,48.2,30.25,SW,225,0.0,0.0,50,0.00,,,0.00,WUHU216HW,2013-05-05 13:15:00,
2013-05-05 09:20:00,67.3,47.5,30.25,West,270,0.0,0.0,49,0.00,,,0.00,WUHU216HW,2013-05-05 13:20:00,
2013-05-05 09:25:00,67.7,48.4,30.25,SW,225,0.0,0.0,50,0.00,,,0.00,WUHU216HW,2013-05-05 13:25:00,
2013-05-05 09:30:00,68.0,47.6,30.25,WSW,248,0.0,0.0,48,0.00,,,0.00,WUHU216HW,2013-05-05 13:30:00,
2013-05-05 09:35:00,68.6,48.7,30.25,West,270,0.0,0.0,49,0.00,,,0.00,WUHU216HW,2013-05-05 13:35:00,
2013-05-05 09:40:00,69.5,49.5,30.25,West,270,0.0,0.0,49,0.00,,,0.00,WUHU216HW,2013-05-05 13:40:00,
2013-05-05 09:45:00,69.8,48.1,30.25,NNW,338,0.0,0.0,46,0.00,,,0.00,WUHU216HW,2013-05-05 13:45:00,
2013-05-05 09:50:00,69.7,49.1,30.25,WSW,248,0.0,0.0,48,0.00,,,0.00,WUHU216HW,2013-05-05 13:50:00,
2013-05-05 09:55:00,69.8,48.6,30.25,SW,225,0.0,0.0,47,0.00,,,0.00,WUHU216HW,2013-05-05 13:55:00,
2013-05-05 10:00:00,70.2,47.8,30.25,WSW,248,0.0,0.0,45,0.00,,,0.00,WUHU216HW,2013-05-05 14:00:00,
2013-05-05 10:05:00,70.6,48.1,30.25,ESE,113,0.0,0.0,45,0.00,,,0.00,WUHU216HW,2013-05-05 14:05:00,
2013-05-05 10:10:00,70.7,47.6,30.25,East,90,0.0,0.0,44,0.00,,,0.00,WUHU216HW,2013-05-05 14:10:00,
2013-05-05 10:15:00,70.6,44.4,30.24,East,90,0.0,0.0,39,0.00,,,0.00,WUHU216HW,2013-05-05 14:15:00,
2013-05-05 10:20:00,70.4,46.2,30.25,NNE,23,0.0,0.0,42,0.00,,,0.00,WUHU216HW,2013-05-05 14:20:00,
2013-05-05 10:25:00,69.7,45.5,30.25,North,0,0.0,0.0,42,0.00,,,0.00,WUHU216HW,2013-05-05 14:25:00,
2013-05-05 10:30:00,69.5,47.1,30.25,ESE,113,0.0,0.0,45,0.00,,,0.00,WUHU216HW,2013-05-05 14:30:00,
2013-05-05 10:35:00,70.0,47.0,30.24,North,0,0.0,0.0,44,0.00,,,0.00,WUHU216HW,2013-05-05 14:35:00,
2013-05-05 10:40:00,69.8,46.3,30.25,West,270,0.0,0.0,43,0.00,,,0.00,WUHU216HW,2013-05-05 14:40:00,
2013-05-05 10:45:00,70.4,46.2,30.24,North,0,0.0,0.0,42,0.00,,,0.00,WUHU216HW,2013-05-05 14:45:00,
2013-05-05 10:50:00,70.0,45.2,30.24,East,90,0.0,0.0,41,0.00,,,0.00,WUHU216HW,2013-05-05 14:50:00,
2013-05-05 10:55:00,70.6,46.3,30.24,SSE,158,0.0,0.0,42,0.00,,,0.00,WUHU216HW,2013-05-05 14:55:00,
2013-05-05 11:00:00,71.5,48.3,30.24,WNW,293,0.0,0.0,44,0.00,,,0.00,WUHU216HW,2013-05-05 15:00:00,
2013-05-05 11:05:00,72.4,48.5,30.24,NE,45,0.0,0.0,43,0.00,,,0.00,WUHU216HW,2013-05-05 15:05:00,
2013-05-05 11:10:00,72.0,45.6,30.24,East,90,0.0,0.0,39,0.00,,,0.00,WUHU216HW,2013-05-05 15:10:00,
2013-05-05 11:15:00,71.5,46.5,30.24,NNE,23,0.0,0.0,41,0.00,,,0.00,WUHU216HW,2013-05-05 15:15:00,
2013-05-05 11:20:00,71.8,46.8,30.24,NNW,338,0.0,0.0,41,0.00,,,0.00,WUHU216HW,2013-05-05 15:20:00,
2013-05-05 11:25:00,71.8,48.1,30.24,SE,135,0.0,0.0,43,0.00,,,0.00,WUHU216HW,2013-05-05 15:25:00,
2013-05-05 11:30:00,72.4,47.9,30.24,NNE,23,0.0,0.0,42,0.00,,,0.00,WUHU216HW,2013-05-05 15:30:00,
2013-05-05 11:35:00,72.0,44.9,30.24,SE,135,0.0,0.0,38,0.00,,,0.00,WUHU216HW,2013-05-05 15:35:00,
2013-05-05 11:40:00,71.6,47.3,30.24,ESE,113,0.0,0.0,42,0.00,,,0.00,WUHU216HW,2013-05-05 15:40:00,
2013-05-05 11:45:00,72.2,45.8,30.24,ENE,68,0.0,0.0,39,0.00,,,0.00,WUHU216HW,2013-05-05 15:45:00,
2013-05-05 11:50:00,72.0,48.8,30.24,East,90,0.0,0.0,44,0.00,,,0.00,WUHU216HW,2013-05-05 15:50:00,
2013-05-05 11:55:00,72.4,49.2,30.24,SSE,158,0.0,0.0,44,0.00,,,0.00,WUHU216HW,2013-05-05 15:55:00,
2013-05-05 12:00:00,72.9,49.6,30.23,West,270,0.0,0.0,44,0.00,,,0.00,WUHU216HW,2013-05-05 16:00:00,
2013-05-05 12:05:00,72.4,47.4,30.23,SE,135,0.0,0.0,41,0.00,,,0.00,WUHU216HW,2013-05-05 16:05:00,
2013-05-05 12:10:00,72.9,49.6,30.23,ESE,113,0.0,0.0,44,0.00,,,0.00,WUHU216HW,2013-05-05 16:10:00,
2013-05-05 12:15:00,73.3,48.7,30.23,NNE,23,0.0,0.0,42,0.00,,,0.00,WUHU216HW,2013-05-05 16:15:00,
2013-05-05 12:20:00,72.9,50.8,30.23,East,90,0.0,0.0,46,0.00,,,0.00,WUHU216HW,2013-05-05 16:20:00,
2013-05-05 12:25:00,72.4,47.4,30.23,WSW,248,0.0,0.0,41,0.00,,,0.00,WUHU216HW,2013-05-05 16:25:00,
2013-05-05 12:30:00,72.5,51.0,30.22,NNW,338,0.0,0.0,47,0.00,,,0.00,WUHU216HW,2013-05-05 16:30:00,
2013-05-05 12:35:00,72.7,47.6,30.22,North,0,0.0,0.0,41,0.00,,,0.00,WUHU216HW,2013-05-05 16:35:00,
2013-05-05 12:40:00,72.5,49.2,30.22,ESE,113,0.0,0.0,44,0.00,,,0.00,WUHU216HW,2013-05-05 16:40:00,
2013-05-05 12:45:00,72.9,47.8,30.22,ESE,113,0.0,0.0,41,0.00,,,0.00,WUHU216HW,2013-05-05 16:45:00,
2013-05-05 12:50:00,73.3,50.0,30.22,NNE,23,0.0,0.0,44,0.00,,,0.00,WUHU216HW,2013-05-05 16:50:00,
2013-05-05 12:55:00,73.1,48.0,30.22,NE,45,0.0,0.0,41,0.00,,,0.00,WUHU216HW,2013-05-05 16:55:00,
2013-05-05 13:00:00,72.5,48.1,30.21,NNE,23,0.0,0.0,42,0.00,,,0.00,WUHU216HW,2013-05-05 17:00:00,
2013-05-05 13:05:00,72.7,47.6,30.21,NNW,338,0.0,0.0,41,0.00,,,0.00,WUHU216HW,2013-05-05 17:05:00,
2013-05-05 13:10:00,72.7,47.6,30.21,ENE,68,0.0,0.0,41,0.00,,,0.00,WUHU216HW,2013-05-05 17:10:00,
2013-05-05 13:15:00,72.5,48.1,30.21,SE,135,0.0,0.0,42,0.00,,,0.00,WUHU216HW,2013-05-05 17:15:00,
2013-05-05 13:20:00,72.7,47.6,30.20,NE,45,0.0,0.0,41,0.00,,,0.00,WUHU216HW,2013-05-05 17:20:00,
2013-05-05 13:25:00,72.7,49.4,30.20,NNE,23,0.0,0.0,44,0.00,,,0.00,WUHU216HW,2013-05-05 17:25:00,
2013-05-05 13:30:00,72.5,48.1,30.20,NNE,23,0.0,0.0,42,0.00,,,0.00,WUHU216HW,2013-05-05 17:30:00,
2013-05-05 13:35:00,72.7,47.1,30.20,NNE,23,0.0,0.0,40,0.00,,,0.00,WUHU216HW,2013-05-05 17:35:00,
2013-05-05 13:40:00,72.7,47.6,30.20,NNE,23,0.0,0.0,41,0.00,,,0.00,WUHU216HW,2013-05-05 17:40:00,
2013-05-05 13:45:00,72.9,49.6,30.20,NW,315,0.0,0.0,44,0.00,,,0.00,WUHU216HW,2013-05-05 17:45:00,
2013-05-05 13:50:00,72.9,48.4,30.20,NNE,23,0.0,0.0,42,0.00,,,0.00,WUHU216HW,2013-05-05 17:50:00,
2013-05-05 13:55:00,72.9,48.4,30.20,NNE,23,0.0,0.0,42,0.00,,,0.00,WUHU216HW,2013-05-05 17:55:00,
2013-05-05 14:00:00,72.7,47.1,30.19,NNE,23,0.0,0.0,40,0.00,,,0.00,WUHU216HW,2013-05-05 18:00:00,
2013-05-05 14:05:00,72.9,45.0,30.19,ENE,68,0.0,0.0,37,0.00,,,0.00,WUHU216HW,2013-05-05 18:05:00,
2013-05-05 14:10:00,72.7,47.1,30.19,NNE,23,0.0,0.0,40,0.00,,,0.00,WUHU216HW,2013-05-05 18:10:00,
2013-05-05 14:15:00,72.9,45.0,30.19,NNE,23,0.0,0.0,37,0.00,,,0.00,WUHU216HW,2013-05-05 18:15:00,
2013-05-05 14:20:00,73.1,46.6,30.19,NE,45,0.0,0.0,39,0.00,,,0.00,WUHU216HW,2013-05-05 18:20:00,
2013-05-05 14:25:00,72.7,47.1,30.18,NNE,23,0.0,0.0,40,0.00,,,0.00,WUHU216HW,2013-05-05 18:25:00,
2013-05-05 14:30:00,73.1,45.9,30.18,East,90,0.0,0.0,38,0.00,,,0.00,WUHU216HW,2013-05-05 18:30:00,
2013-05-05 14:35:00,73.4,47.0,30.18,ENE,68,0.0,0.0,39,0.00,,,0.00,WUHU216HW,2013-05-05 18:35:00,
2013-05-05 14:40:00,73.1,42.8,30.18,East,90,0.0,0.0,34,0.00,,,0.00,WUHU216HW,2013-05-05 18:40:00,
2013-05-05 14:45:00,72.9,45.0,30.18,North,0,0.0,0.0,37,0.00,,,0.00,WUHU216HW,2013-05-05 18:45:00,
2013-05-05 14:50:00,73.3,46.8,30.18,North,0,0.0,0.0,39,0.00,,,0.00,WUHU216HW,2013-05-05 18:50:00,
2013-05-05 14:55:00,73.1,44.4,30.18,ENE,68,0.0,0.0,36,0.00,,,0.00,WUHU216HW,2013-05-05 18:55:00,
2013-05-05 15:00:00,73.1,45.1,30.18,NNE,23,0.0,0.0,37,0.00,,,0.00,WUHU216HW,2013-05-05 19:00:00,
2013-05-05 15:05:00,73.8,48.6,30.17,East,90,0.0,0.0,41,0.00,,,0.00,WUHU216HW,2013-05-05 19:05:00,
2013-05-05 15:10:00,73.8,45.0,30.17,NE,45,0.0,0.0,36,0.00,,,0.00,WUHU216HW,2013-05-05 19:10:00,
2013-05-05 15:15:00,73.6,46.4,30.17,NW,315,0.0,0.0,38,0.00,,,0.00,WUHU216HW,2013-05-05 19:15:00,
2013-05-05 15:20:00,73.8,46.5,30.17,NE,45,0.0,0.0,38,0.00,,,0.00,WUHU216HW,2013-05-05 19:20:00,
2013-05-05 15:25:00,74.0,47.4,30.17,North,0,0.0,0.0,39,0.00,,,0.00,WUHU216HW,2013-05-05 19:25:00,
2013-05-05 15:30:00,74.0,46.7,30.17,NNE,23,0.0,0.0,38,0.00,,,0.00,WUHU216HW,2013-05-05 19:30:00,
2013-05-05 15:35:00,73.8,47.3,30.17,North,0,0.0,0.0,39,0.00,,,0.00,WUHU216HW,2013-05-05 19:35:00,
2013-05-05 15:40:00,73.8,44.3,30.17,NE,45,0.0,0.0,35,0.00,,,0.00,WUHU216HW,2013-05-05 19:40:00,
2013-05-05 15:45:00,73.8,45.0,30.17,NE,45,0.0,0.0,36,0.00,,,0.00,WUHU216HW,2013-05-05 19:45:00,
2013-05-05 15:50:00,73.8,48.1,30.16,ENE,68,0.0,0.0,40,0.00,,,0.00,WUHU216HW,2013-05-05 19:50:00,
2013-05-05 15:55:00,74.0,45.9,30.16,ESE,113,0.0,0.0,37,0.00,,,0.00,WUHU216HW,2013-05-05 19:55:00,
2013-05-05 16:00:00,74.2,47.6,30.15,NNE,23,0.0,0.0,39,0.00,,,0.00,WUHU216HW,2013-05-05 20:00:00,
2013-05-05 16:05:00,74.2,48.3,30.15,ENE,68,0.0,0.0,40,0.00,,,0.00,WUHU216HW,2013-05-05 20:05:00,
2013-05-05 16:10:00,73.8,44.3,30.15,ENE,68,0.0,0.0,35,0.00,,,0.00,WUHU216HW,2013-05-05 20:10:00,
2013-05-05 16:15:00,73.8,47.3,30.15,North,0,0.0,0.0,39,0.00,,,0.00,WUHU216HW,2013-05-05 20:15:00,
2013-05-05 16:20:00,73.8,45.7,30.15,NE,45,0.0,0.0,37,0.00,,,0.00,WUHU216HW,2013-05-05 20:20:00,
2013-05-05 16:25:00,73.8,46.5,30.15,ENE,68,0.0,0.0,38,0.00,,,0.00,WUHU216HW,2013-05-05 20:25:00,
2013-05-05 16:30:00,73.8,48.6,30.14,ENE,68,0.0,0.0,41,0.00,,,0.00,WUHU216HW,2013-05-05 20:30:00,
2013-05-05 16:35:00,74.2,47.6,30.15,East,90,0.0,0.0,39,0.00,,,0.00,WUHU216HW,2013-05-05 20:35:00,
2013-05-05 16:40:00,74.5,47.2,30.15,East,90,0.0,0.0,38,0.00,,,0.00,WUHU216HW,2013-05-05 20:40:00,
2013-05-05 16:45:00,73.8,46.5,30.15,NNE,23,0.0,0.0,38,0.00,,,0.00,WUHU216HW,2013-05-05 20:45:00,
2013-05-05 16:50:00,73.4,46.2,30.15,ENE,68,0.0,0.0,38,0.00,,,0.00,WUHU216HW,2013-05-05 20:50:00,
2013-05-05 16:55:00,73.1,47.3,30.15,North,0,0.0,0.0,40,0.00,,,0.00,WUHU216HW,2013-05-05 20:55:00,
2013-05-05 17:00:00,73.1,46.6,30.14,NE,45,0.0,0.0,39,0.00,,,0.00,WUHU216HW,2013-05-05 21:00:00,
2013-05-05 17:05:00,73.4,47.7,30.14,NNE,23,0.0,0.0,40,0.00,,,0.00,WUHU216HW,2013-05-05 21:05:00,
2013-05-05 17:10:00,73.6,46.4,30.14,ENE,68,0.0,0.0,38,0.00,,,0.00,WUHU216HW,2013-05-05 21:10:00,
2013-05-05 17:15:00,73.6,47.9,30.14,NNE,23,0.0,0.0,40,0.00,,,0.00,WUHU216HW,2013-05-05 21:15:00,
2013-05-05 17:20:00,73.1,46.6,30.14,NE,45,0.0,0.0,39,0.00,,,0.00,WUHU216HW,2013-05-05 21:20:00,
2013-05-05 17:25:00,72.7,46.3,30.14,ENE,68,0.0,0.0,39,0.00,,,0.00,WUHU216HW,2013-05-05 21:25:00,
2013-05-05 17:30:00,72.7,46.3,30.14,ESE,113,0.0,0.0,39,0.00,,,0.00,WUHU216HW,2013-05-05 21:30:00,
2013-05-05 17:35:00,72.7,46.3,30.14,East,90,0.0,0.0,39,0.00,,,0.00,WUHU216HW,2013-05-05 21:35:00,
2013-05-05 17:40:00,72.5,46.9,30.14,NNE,23,0.0,0.0,40,0.00,,,0.00,WUHU216HW,2013-05-05 21:40:00,
2013-05-05 17:45:00,72.7,47.6,30.14,NNE,23,0.0,0.0,41,0.00,,,0.00,WUHU216HW,2013-05-05 21:45:00,
2013-05-05 17:50:00,72.4,46.7,30.14,NNE,23,0.0,0.0,40,0.00,,,0.00,WUHU216HW,2013-05-05 21:50:00,
2013-05-05 17:55:00,72.0,46.5,30.14,NNE,23,0.0,0.0,40,0.00,,,0.00,WUHU216HW,2013-05-05 21:55:00,
2013-05-05 18:00:00,71.8,46.3,30.14,NE,45,0.0,0.0,40,0.00,,,0.00,WUHU216HW,2013-05-05 22:00:00,
2013-05-05 18:05:00,71.6,46.1,30.14,ENE,68,0.0,0.0,40,0.00,,,0.00,WUHU216HW,2013-05-05 22:05:00,
2013-05-05 18:10:00,71.3,46.4,30.14,East,90,0.0,0.0,41,0.00,,,0.00,WUHU216HW,2013-05-05 22:10:00,
2013-05-05 18:15:00,71.1,45.6,30.14,NNE,23,0.0,0.0,40,0.00,,,0.00,WUHU216HW,2013-05-05 22:15:00,
2013-05-05 18:20:00,71.3,45.7,30.14,East,90,0.0,0.0,40,0.00,,,0.00,WUHU216HW,2013-05-05 22:20:00,
2013-05-05 18:25:00,70.9,46.6,30.14,NE,45,0.0,0.0,42,0.00,,,0.00,WUHU216HW,2013-05-05 22:25:00,
2013-05-05 18:30:00,70.7,46.4,30.13,ENE,68,0.0,0.0,42,0.00,,,0.00,WUHU216HW,2013-05-05 22:30:00,
2013-05-05 18:35:00,70.7,46.4,30.14,NNE,23,0.0,0.0,42,0.00,,,0.00,WUHU216HW,2013-05-05 22:35:00,
2013-05-05 18:40:00,70.6,46.9,30.13,NNE,23,0.0,0.0,43,0.00,,,0.00,WUHU216HW,2013-05-05 22:40:00,
2013-05-05 18:45:00,70.6,45.7,30.13,NE,45,0.0,0.0,41,0.00,,,0.00,WUHU216HW,2013-05-05 22:45:00,
2013-05-05 18:50:00,70.9,46.0,30.13,NNE,23,0.0,0.0,41,0.00,,,0.00,WUHU216HW,2013-05-05 22:50:00,
2013-05-05 18:55:00,71.3,46.4,30.14,ENE,68,0.0,0.0,41,0.00,,,0.00,WUHU216HW,2013-05-05 22:55:00,
2013-05-05 19:00:00,71.3,45.7,30.13,NE,45,0.0,0.0,40,0.00,,,0.00,WUHU216HW,2013-05-05 23:00:00,
2013-05-05 19:05:00,71.1,45.6,30.13,NE,45,0.0,0.0,40,0.00,,,0.00,WUHU216HW,2013-05-05 23:05:00,
2013-05-05 19:10:00,70.4,44.9,30.13,ESE,113,0.0,0.0,40,0.00,,,0.00,WUHU216HW,2013-05-05 23:10:00,
2013-05-05 19:15:00,69.5,45.4,30.14,ENE,68,0.0,0.0,42,0.00,,,0.00,WUHU216HW,2013-05-05 23:15:00,
2013-05-05 19:20:00,68.8,45.3,30.14,NNE,23,0.0,0.0,43,0.00,,,0.00,WUHU216HW,2013-05-05 23:20:00,
2013-05-05 19:25:00,68.4,44.9,30.14,ENE,68,0.0,0.0,43,0.00,,,0.00,WUHU216HW,2013-05-05 23:25:00,
2013-05-05 19:30:00,67.7,45.5,30.14,NE,45,0.0,0.0,45,0.00,,,0.00,WUHU216HW,2013-05-05 23:30:00,
2013-05-05 19:35:00,67.1,45.0,30.14,NNE,23,0.0,0.0,45,0.00,,,0.00,WUHU216HW,2013-05-05 23:35:00,
2013-05-05 19:40:00,66.8,44.6,30.14,ENE,68,0.0,0.0,45,0.00,,,0.00,WUHU216HW,2013-05-05 23:40:00,
2013-05-05 19:45:00,66.4,44.9,30.14,NE,45,0.0,0.0,46,0.00,,,0.00,WUHU216HW,2013-05-05 23:45:00,
2013-05-05 19:50:00,66.1,44.0,30.14,ENE,68,0.0,0.0,45,0.00,,,0.00,WUHU216HW,2013-05-05 23:50:00,
2013-05-05 19:55:00,65.7,44.3,30.14,NNE,23,0.0,0.0,46,0.00,,,0.00,WUHU216HW,2013-05-05 23:55:00,
2013-05-05 20:00:00,65.3,44.5,30.14,NNE,23,0.0,0.0,47,0.00,,,0.00,WUHU216HW,2013-05-06 00:00:00,
2013-05-05 20:05:00,65.2,44.9,30.14,NNE,23,0.0,0.0,48,0.00,,,0.00,WUHU216HW,2013-05-06 00:05:00,
2013-05-05 20:10:00,64.6,45.0,30.14,NE,45,0.0,0.0,49,0.00,,,0.00,WUHU216HW,2013-05-06 00:10:00,
2013-05-05 20:15:00,64.3,44.7,30.14,ENE,68,0.0,0.0,49,0.00,,,0.00,WUHU216HW,2013-05-06 00:15:00,
2013-05-05 20:20:00,64.1,44.5,30.14,NE,45,0.0,0.0,49,0.00,,,0.00,WUHU216HW,2013-05-06 00:20:00,
2013-05-05 20:25:00,63.5,45.0,30.14,NE,45,0.0,0.0,51,0.00,,,0.00,WUHU216HW,2013-05-06 00:25:00,
2013-05-05 20:30:00,63.2,44.2,30.14,NE,45,0.0,0.0,50,0.00,,,0.00,WUHU216HW,2013-05-06 00:30:00,
2013-05-05 20:35:00,63.0,44.6,30.14,NE,45,0.0,0.0,51,0.00,,,0.00,WUHU216HW,2013-05-06 00:35:00,
2013-05-05 20:40:00,62.6,44.7,30.14,NE,45,0.0,0.0,52,0.00,,,0.00,WUHU216HW,2013-05-06 00:40:00,
2013-05-05 20:45:00,62.3,44.9,30.14,NE,45,0.0,0.0,53,0.00,,,0.00,WUHU216HW,2013-05-06 00:45:00,
2013-05-05 20:50:00,62.1,44.7,30.14,NE,45,0.0,0.0,53,0.00,,,0.00,WUHU216HW,2013-05-06 00:50:00,
2013-05-05 20:55:00,61.7,44.9,30.14,NE,45,0.0,0.0,54,0.00,,,0.00,WUHU216HW,2013-05-06 00:55:00,
2013-05-05 21:00:00,61.4,44.6,30.14,NE,45,0.0,0.0,54,0.00,,,0.00,WUHU216HW,2013-05-06 01:00:00,
2013-05-05 21:05:00,61.2,44.4,30.14,NE,45,0.0,0.0,54,0.00,,,0.00,WUHU216HW,2013-05-06 01:05:00,
2013-05-05 21:10:00,60.8,44.6,30.14,NE,45,0.0,0.0,55,0.00,,,0.00,WUHU216HW,2013-05-06 01:10:00,
2013-05-05 21:15:00,60.7,44.4,30.14,NE,45,0.0,0.0,55,0.00,,,0.00,WUHU216HW,2013-05-06 01:15:00,
2013-05-05 21:20:00,60.5,44.2,30.14,NE,45,0.0,0.0,55,0.00,,,0.00,WUHU216HW,2013-05-06 01:20:00,
2013-05-05 21:25:00,60.3,44.6,30.14,NE,45,0.0,0.0,56,0.00,,,0.00,WUHU216HW,2013-05-06 01:25:00,
2013-05-05 21:30:00,60.1,44.4,30.14,NE,45,0.0,0.0,56,0.00,,,0.00,WUHU216HW,2013-05-06 01:30:00,
2013-05-05 21:35:00,60.1,44.4,30.15,NE,45,0.0,0.0,56,0.00,,,0.00,WUHU216HW,2013-05-06 01:35:00,
2013-05-05 21:40:00,59.9,44.2,30.15,NE,45,0.0,0.0,56,0.00,,,0.00,WUHU216HW,2013-05-06 01:40:00,
2013-05-05 21:45:00,59.8,44.0,30.15,NE,45,0.0,0.0,56,0.00,,,0.00,WUHU216HW,2013-05-06 01:45:00,
2013-05-05 21:50:00,59.4,43.7,30.15,NE,45,0.0,0.0,56,0.00,,,0.00,WUHU216HW,2013-05-06 01:50:00,
2013-05-05 21:55:00,59.2,43.9,30.15,NE,45,0.0,0.0,57,0.00,,,0.00,WUHU216HW,2013-05-06 01:55:00,
2013-05-05 22:00:00,59.0,43.7,30.15,NE,45,0.0,0.0,57,0.00,,,0.00,WUHU216HW,2013-05-06 02:00:00,
2013-05-05 22:05:00,58.9,43.7,30.15,NE,45,0.0,0.0,57,0.00,,,0.00,WUHU216HW,2013-05-06 02:05:00,
2013-05-05 22:10:00,58.7,43.9,30.15,NE,45,0.0,0.0,58,0.00,,,0.00,WUHU216HW,2013-05-06 02:10:00,
2013-05-05 22:15:00,58.3,43.6,30.15,NE,45,0.0,0.0,58,0.00,,,0.00,WUHU216HW,2013-05-06 02:15:00,
2013-05-05 22:20:00,58.0,43.3,30.15,NE,45,0.0,0.0,58,0.00,,,0.00,WUHU216HW,2013-05-06 02:20:00,
2013-05-05 22:25:00,58.0,43.3,30.15,NE,45,0.0,0.0,58,0.00,,,0.00,WUHU216HW,2013-05-06 02:25:00,
2013-05-05 22:30:00,57.6,42.5,30.15,NE,45,0.0,0.0,57,0.00,,,0.00,WUHU216HW,2013-05-06 02:30:00,
2013-05-05 22:35:00,57.2,43.1,30.15,NE,45,0.0,0.0,59,0.00,,,0.00,WUHU216HW,2013-05-06 02:35:00,
2013-05-05 22:41:00,56.9,42.8,30.15,NE,45,0.0,0.0,59,0.00,,,0.00,WUHU216HW,2013-05-06 02:41:00,
2013-05-05 22:46:00,56.7,42.6,30.15,NE,45,0.0,0.0,59,0.00,,,0.00,WUHU216HW,2013-05-06 02:46:00,
2013-05-05 22:50:00,56.3,42.2,30.15,SSE,158,0.0,0.0,59,0.00,,,0.00,WUHU216HW,2013-05-06 02:50:00,
2013-05-05 22:55:00,56.2,43.3,30.15,NE,45,0.0,0.0,62,0.00,,,0.00,WUHU216HW,2013-05-06 02:55:00,
2013-05-05 23:00:00,55.8,42.9,30.15,NE,45,0.0,0.0,62,0.00,,,0.00,WUHU216HW,2013-05-06 03:00:00,
2013-05-05 23:05:00,55.6,42.8,30.15,NE,45,0.0,0.0,62,0.00,,,0.00,WUHU216HW,2013-05-06 03:05:00,
2013-05-05 23:10:00,55.4,42.6,30.16,NE,45,0.0,0.0,62,0.00,,,0.00,WUHU216HW,2013-05-06 03:10:00,
2013-05-05 23:15:00,55.4,42.6,30.15,NE,45,0.0,0.0,62,0.00,,,0.00,WUHU216HW,2013-05-06 03:15:00,
2013-05-05 23:20:00,55.3,42.0,30.15,NE,45,0.0,0.0,61,0.00,,,0.00,WUHU216HW,2013-05-06 03:20:00,
2013-05-05 23:25:00,55.3,42.4,30.15,NE,45,0.0,0.0,62,0.00,,,0.00,WUHU216HW,2013-05-06 03:25:00,
2013-05-05 23:30:00,55.1,42.3,30.15,ESE,113,0.0,0.0,62,0.00,,,0.00,WUHU216HW,2013-05-06 03:30:00,
2013-05-05 23:35:00,55.1,42.3,30.15,ESE,113,0.0,0.0,62,0.00,,,0.00,WUHU216HW,2013-05-06 03:35:00,
2013-05-05 23:40:00,55.1,43.1,30.15,ESE,113,0.0,0.0,64,0.00,,,0.00,WUHU216HW,2013-05-06 03:40:00,
2013-05-05 23:45:00,55.3,42.9,30.15,ENE,68,0.0,0.0,63,0.00,,,0.00,WUHU216HW,2013-05-06 03:45:00,
2013-05-05 23:50:00,55.4,43.0,30.15,ESE,113,0.0,0.0,63,0.00,,,0.00,WUHU216HW,2013-05-06 03:50:00,
2013-05-05 23:55:00,55.6,43.2,30.15,East,90,0.0,0.0,63,0.00,,,0.00,WUHU216HW,2013-05-06 03:55:00,